Terug naar catalogus

KUIPER-00197

ActiefCommunicatieLEO
NORAD 67769·PAYLOAD·🇺🇸 United States

Gelanceerd Feb 12, 2026 vanaf Guiana Space Centre

Loading…

Volgende Passages (komende 24 uur)

TLE

VersSource: CelesTrak SupGP

Epoch: Sep 14, 2026, 17:11 UTC

1 67769C 26030F   26257.71641204  .00001357  00000+0  17764-3 0  2573
2 67769  51.8985  72.2414 0000799 115.3148 359.8059 14.79928241    18

Volg KUIPER-00197 in realtime met AllMySat

Download on the App Store